This is the latest recevied weather packets stored in our database for station/object VE7PRT-1. If no packets are shown the sender has not sent any weather packets the latest 10 day(s).
| Time | Temp. | Humidity | Pressure | Rain* | Wind** | Luminosity | Snow |
|---|---|---|---|---|---|---|---|
| 1777668814 | 14.44° C | 93% | 1018.2 hPa | 0 mm | - | - | - |
| 1777668090 | 13.89° C | 94% | 1018.2 hPa | 0 mm | - | - | - |
| 1777667264 | 13.33° C | 95% | 1018.3 hPa | 0 mm | - | - | - |
| 1777666482 | 12.78° C | 96% | 1018.4 hPa | 0 mm | - | - | - |
| 1777665666 | 12.22° C | 96% | 1018.5 hPa | 0 mm | - | - | - |
| 1777664927 | 11.67° C | 96% | 1018.3 hPa | 0 mm | - | - | - |
| 1777664125 | 11.67° C | 97% | 1018.3 hPa | 0 mm | - | - | - |
| 1777663239 | 12.22° C | 97% | 1018.3 hPa | 0 mm | - | - | - |
| 1777662469 | 12.22° C | 98% | 1018.2 hPa | 0 mm | - | - | - |
| 1777661605 | 12.22° C | 98% | 1018.2 hPa | 0 mm | - | - | - |
| 1777660883 | 11.67° C | 98% | 1018.4 hPa | 0 mm | - | - | - |
| 1777660104 | 11.11° C | 98% | 1018.4 hPa | 0 mm | - | - | - |
| 1777659324 | 11.11° C | 98% | 1018.3 hPa | 0 mm | - | - | - |
| 1777658478 | 11.11° C | 98% | 1018.2 hPa | 0 mm | - | - | - |
| 1777657665 | 11.11° C | 98% | 1018.2 hPa | 0 mm | - | - | - |
| 1777656833 | 11.11° C | 98% | 1018.3 hPa | 0 mm | - | - | - |
| 1777656009 | 11.67° C | 98% | 1018 hPa | 0 mm | - | - | - |
| 1777655274 | 11.11° C | 98% | 1018.1 hPa | 0 mm | - | - | - |
| 1777654464 | 11.11° C | 98% | 1018.2 hPa | 0 mm | - | - | - |
| 1777653703 | 11.11° C | 98% | 1018.3 hPa | 0 mm | - | - | - |
| 1777652914 | 11.11° C | 98% | 1018.2 hPa | 0 mm | - | - | - |
| 1777652104 | 11.11° C | 98% | 1018.3 hPa | 0 mm | - | - | - |
| 1777651276 | 11.11° C | 98% | 1018.2 hPa | 0 mm | - | - | - |
| 1777650546 | 10.56° C | 98% | 1018.1 hPa | 0 mm | - | - | - |
| 1777649739 | 10.56° C | 98% | 1018 hPa | 0 mm | - | - | - |
* Rain latest hour (hover to see other rain measurements)
** Current wind speed in m/s (hover to see current wind gust speed)